Simultaneous Nadir Overpasses (SNOs) Predictions

Prediction of SNOs between METOP-B and NOAA-19 Satellite Orbit:

Table of predicted SNOs for the next 14.0 days since TLE Epoch: 4/16/2022
Index Date (METOP-B) Time (METOP-B) Lat,Lon (METOP-B) SZA (METOP-B ) Date (NOAA-19) Time (NOAA-19) Lat,Lon (NOAA-19) SZA (NOAA-19 ) Distance(km) Time Diff (sec)
1 04/19/2022 15:32:14 80.82, -20.06 71.02 04/19/2022 15:30:59 80.81, -20.16 70.97 2.47 75
2 04/19/2022 16:22:55 -80.82, 147.20 109.01 04/19/2022 16:22:04 -80.81, 147.19 109.04 1.44 51
3 04/19/2022 17:13:36 80.82, -45.55 70.98 04/19/2022 17:12:59 80.81, -45.66 70.95 2.11 37
4 04/19/2022 18:04:17 -80.81, 121.71 109.05 04/19/2022 18:04:04 -80.81, 121.69 109.06 0.62 13
5 04/19/2022 18:54:58 80.81, -71.04 70.93 04/19/2022 18:54:59 80.81, -71.16 70.92 2.12 1
6 04/19/2022 19:45:39 -80.80, 96.22 109.10 04/19/2022 19:46:04 -80.81, 96.20 109.09 0.63 25
7 04/19/2022 20:36:20 80.80, -96.53 70.89 04/19/2022 20:36:59 80.81, -96.65 70.90 2.52 39
8 04/19/2022 21:27:01 -80.79, 70.73 109.14 04/19/2022 21:28:04 -80.81, 70.70 109.11 1.48 63



Historial Predications of SNOs between METOP-B and NOAA-19
